Regional Weather Roundup
Issued by NWS

Home | Current Version | Previous Version | Text Only | Print | Product List | Glossary Off
Versions: 1 2 3 4 5 6 7 8 9 10 11 12 13 14 15 16 17 18 19 20 21 22 23 24 25 26 27 28 29 30 31 32 33 34 35 36 37 38 39 40 41 42 43 44 45 46 47 48 49 50

000
ASUS43 KLMK 140210
RWRKY
KENTUCKY REGIONAL WEATHER ROUNDUP
NATIONAL WEATHER SERVICE LOUISVILLE KY
1000 PM EDT SUN JUL 13 2014

NOTE "FAIR" INDICATES FEW OR NO CLOUDS BELOW 12,000 FEET
WITH NO SIGNIFICANT WEATHER AND/OR OBSTRUCTIONS TO VISIBILITY.

KYZ001>023-026-027-061>063-070>075-140300-
WESTERN AND SOUTH CENTRAL KENTUCKY

CITY           SKY/WX    TMP DP  RH WIND       PRES   REMARKS
PADUCAH        CLEAR     86  73  65 SW6       29.93S HX  93
HENDERSON      PTCLDY    81  72  74 S3        29.92S
OWENSBORO      PTCLDY    82  75  79 SW3       29.93S
HOPKINSVILLE   CLEAR     84  74  71 S7        29.97S HX  90
BOWLING GREEN  CLEAR     86  68  54 SW7       29.97R
GLASGOW        CLEAR     81  68  63 CALM      29.97S
$$

KYZ024-025-028>034-038-045-046-053-140300-
NORTH CENTRAL KENTUCKY

CITY           SKY/WX    TMP DP  RH WIND       PRES   REMARKS
LOUISVILLE/SDF MOCLDY    83  71  67 CALM      29.93R
LOUISVILLE/LOU MOCLDY    81  72  74 N9        29.94R
FORT KNOX      MOCLDY    81  71  70 SW5       29.93F
$$

KYZ035>037-039>044-047>052-055>060-089>105-140300-
NORTHEAST KENTUCKY

CITY           SKY/WX    TMP DP  RH WIND       PRES   REMARKS
LEXINGTON      MOCLDY    77  70  79 NW3       29.97S
COVINGTON      LGT RAIN  73  70  90 SW5       29.95S
FRANKFORT      MOCLDY    77  71  82 CALM      29.95S
$$

KYZ054-064>069-076>088-106>120-140300-
SOUTHEAST KENTUCKY

CITY           SKY/WX    TMP DP  RH WIND       PRES   REMARKS
JACKSON        PTCLDY    81  68  64 VRB3      30.00F
LONDON         PTCLDY    83  68  60 S7        30.02S
SOMERSET       PTCLDY    82  64  54 SW6       30.01R
MIDDLESBORO    MOCLDY    76  71  84 CALM      30.04R
MONTICELLO     PTCLDY    82  71  69 CALM      30.02R
$$



USA.gov is the U.S. government's official web portal to all federal, state and local government web resources and services.